Regional Weather Roundup
Issued by NWS

Home | Current Version | Previous Version | Graphics & Text | Print | Product List | Glossary Off
Versions: 1 2 3 4 5 6 7 8 9 10 11 12 13 14 15 16 17 18 19 20 21 22 23 24 25 26 27 28 29 30 31 32 33 34 35 36 37 38 39 40 41 42 43 44 45 46 47 48 49 50

000
ASUS43 KMKX 230100
RWRWI

WISCONSIN REGIONAL WEATHER ROUNDUP
NATIONAL WEATHER SERVICE MILWAUKEE/SULLIVAN WI
800 PM CDT SAT JUL 22 2017

NOTE: "FAIR" INDICATES FEW OR NO CLOUDS BELOW 12,000 FEET WITH NO
SIGNIFICANT WEATHER AND/OR OBSTRUCTIONS TO VISIBILITY.

WIZ001-002-006>008-014>016-023>028-230200-
NORTHWEST WISCONSIN

CITY           SKY/WX    TMP DP  RH WIND       PRES   REMARKS
SUPERIOR ARPT  NOT AVBL
ASHLAND        PTCLDY    65  60  84 NE7       29.81R
HAYWARD        LGT RAIN  74  64  71 CALM      29.81R VSB 1
SIREN          CLEAR     81  62  51 W6        29.81R HX  82
CUMBERLAND     CLEAR     77  63  61 W5        29.82S
RICE LAKE      CLEAR     80  65  59 W5        29.82S HX  82
CHETEK         CLEAR     82  66  58 MISG      29.80S HX  83
LADYSMITH      CLEAR     79  66  65 N3        29.83S HX  81
EAU CLAIRE     NOT AVBL
MENOMONIE      PTCLDY    80  71  75 S3        29.80S HX  83
NEW RICHMOND   CLEAR     81  64  55 NW6       29.82S HX  82
OSCEOLA        CLEAR     82  60  46 W7        29.84R HX  82
$$

WIZ003>005-009-010-017-018-230200-
NORTH CENTRAL WISCONSIN

CITY           SKY/WX    TMP DP  RH WIND       PRES   REMARKS
MANITOWISH WTR PTCLDY    76  61  60 NW6       29.82S
ARBOR VITAE    MOCLDY    77  61  57 N7        29.81S
WOODRUFF       MOCLDY    77  61  57 N7        29.81S
RHINELANDER    PTCLDY    75  66  73 NW5       29.82R
EAGLE RIVER    CLOUDY    75  61  61 NW6       29.81S
LAND O LAKES   PTCLDY    76  62  60 NW5       29.83S
PHILLIPS       CLEAR     74  68  83 CALM      29.81S
TOMAHAWK         N/A     77  65  65 NW8       29.82R
MEDFORD        MOCLDY    79  67  67 W7        29.81S HX  81
MERRILL        MOCLDY    81  68  64 NW6       29.80R HX  83
$$

WIZ029-030-035-036-043>047-230200-
CENTRAL WISCONSIN

CITY           SKY/WX    TMP DP  RH WIND       PRES   REMARKS
WAUSAU         MOCLDY    80  67  64 W10       29.77S HX  82
MOSINEE        NOT AVBL
MARSHFIELD     PTCLDY    80  67  64 W6        29.79F HX  82
STEVENS POINT  CLEAR     80  67  65 CALM      29.80S HX  82
WAUPACA        CLEAR     82  71  70 S6        29.78S HX  85
WAUTOMA        CLOUDY    80  72  76 SW6       29.80R HX  84
WISC RAPIDS    MOCLDY    80  71  74 SW3       29.80S HX  84
CAMP DOUGLAS   NOT AVBL
$$

WIZ011>013-019>022-031-037>040-048>050-230200-
NORTHEAST WISCONSIN

CITY           SKY/WX    TMP DP  RH WIND       PRES   REMARKS
ANTIGO         PTCLDY    78  67  70 CALM      29.81R HX  80
SHAWANO        MOCLDY    80  69  67 NE9G16    29.78R HX  83
OCONTO         MOCLDY    74  68  80 S3        29.77R
STURGEON BAY     N/A     70  64  81 SE7       29.79S
GREEN BAY      CLEAR     77  71  82 S10       29.78R
MANITOWOC      NOT AVBL
APPLETON       PTCLDY    79  66  65 S7        29.78R HX  81
CLINTONVILLE   CLEAR     79  68  69 S5        29.77R HX  81
OSHKOSH        CLEAR     77  71  82 S6        29.79R
$$

WIZ032>034-041-042-053>061-230200-
SOUTHWEST WISCONSIN

CITY           SKY/WX    TMP DP  RH WIND       PRES   REMARKS
LA CROSSE      CLEAR     83  73  72 S8        29.79S HX  89
SPARTA         CLEAR     80  71  73 SW5       29.82R HX  83
VIROQUA        CLEAR     78  73  86 SW6       29.84F HX  80
BOSCOBEL       CLEAR     80  74  81 W3        29.82R HX  85
PRAIRIE DU CHI PTCLDY    81  72  74 CALM      29.81F HX  84
PLATTEVILLE    PTCLDY    81  78  90 W3        29.83S HX  89
$$

WIZ056-057-062-063-064-067-068-230200-
SOUTH CENTRAL WISCONSIN

CITY           SKY/WX    TMP DP  RH WIND       PRES   REMARKS
REEDSBURG      CLEAR     79  71  77 SW3       29.81S HX  82
BARABOO/DELLS  CLEAR     79  69  70 SW3       29.82R HX  81
LONE ROCK      NOT AVBL
MINERAL POINT  CLEAR     81  73  78 N3        29.84S HX  85
MADISON        MOCLDY    78  72  81 CALM      29.81R HX  80
MIDDLETON      CLEAR     80  73  77 NW3       29.83S HX  84
WATERTOWN      PTCLDY    78  72  80 W3        29.81R HX  81
MONROE         CLEAR     79  70  73 CALM      29.83R HX  81
JANESVILLE     PTCLDY    81  72  74 CALM      29.81R HX  84
$$

WIZ051-052-058>065-066-070>072-230200-
SOUTHEAST WISCONSIN

CITY           SKY/WX    TMP DP  RH WIND       PRES   REMARKS
MILWAUKEE      MOCLDY    73  68  84 E3        29.81R
WAUKESHA       PTCLDY    77  68  73 W5        29.82R
MILWAUKEE/TIMM PTCLDY    73  64  73 E5        29.82R
RACINE         CLEAR     73  69  87 S7        29.83R
KENOSHA        CLEAR     74  69  85 SE6       29.82R
FOND DU LAC    CLEAR     78  70  76 S3        29.80R HX  80
SHEBOYGAN      CLEAR     73  68  84 SE3       29.81R
WEST BEND      CLEAR     73  68  83 SE7       29.81R
JUNEAU         CLEAR     77  69  74 CALM      29.82S
$$

LSZ147-162-230200-
LAKE SUPERIOR

STATION/POSITION TIME  TEMP    WIND        PRES    WAVE
                       AIR SEA DIR/SP/G            HT/PER
                 (UTC) (F)     (DEG/KT/KT) (MB)    (FT/S)
W MID LAKE BUOY  2350   49 48   30/  8/ 10 1009.3F   2/ 4
DEVILS ISLAND    0000   54      60/  9/ 11 1009.8F
PORT WING        0001   59      30/ 14/ 19 1009.5
SAXON HARBOR     0040   63      60/  3/  5 1008.8F
$$

LMZ867-665-643>646-230200-
LAKE MICHIGAN

STATION/POSITION TIME  TEMP    WIND        PRES    WAVE
                       AIR SEA DIR/SP/G            HT/PER
                 (UTC) (F)     (DEG/KT/KT) (MB)    (FT/S)
CHAMBERS ISLAND  0040   72     110/  7/ 10 1007.8S
S GREEN BAY BUOY 0030   76 76  150/ 10/ 12 1008.5S
N MID LAKE BUOY  2350   70 70  100/  2/  4 1009.1F   0
NORTHPORT PIER   0040   71     150/  6/  7 1008.8R
KEWAUNEE LAKESHO 0030   70     170/  5/  5 1008.5R
SHEBOYGAN LAKESH 0000   70     180/  6/  6 1008.3F
PORT WASHINGTON  0040   73     190/  2/  4 1010.2R
ATWATER BUOY     2309   71 70  130/  2/  4 1009.6F
MILWAUKEE LAKESH 0030   72      30/  1/  2   N/A
S MID LAKE BUOY  2350   69 70   30/  4/  6 1009.0F   1
KENOSHA   LAKESH 0000   76     150/  5/  5 1008.8
$$

TC  - TEMPERATURE IN CELSIUS
VSB - VISIBILITY IN STATUTE MILES
WCI - WIND CHILL INDEX
HX  - HEAT INDEX




USA.gov is the U.S. government's official web portal to all federal, state and local government web resources and services.